Weather History for KRSL - February, 2014

Change the Weather History Date:

Monday, February 3, 2014

  Actual Average Record
Temperature  
Mean Temperature 21 °F -  
Max Temperature 30 °F 39 °F 72 °F (1962)
Min Temperature 12 °F 17 °F -16 °F (1989)
Degree Days  
Heating Degree Days 44    
Moisture  
Dew Point 11 °F    
Average Humidity 59    
Maximum Humidity 81    
Minimum Humidity 40    
Precipitation  
Precipitation 0.00 in - - ()
Sea Level Pressure  
Sea Level Pressure 30.17 in    
Wind  
Wind Speed 11 mph (SSE)    
Max Wind Speed 20 mph    
Max Gust Speed -    
Visibility 10 miles    
Events      
Averages and records for this station are not official NWS values.
T = Trace of Precipitation, MM = Missing Value Source: NWS Daily Summary

Daily Weather History Graph

Daily Weather History Graph

Search for Another Location

Airport or City:

Trip Planner

Search our weather history database for the weather conditions in past years. The results will help you decide how hot, cold, wet, or windy it might be!

Date:

Astronomy

Feb. 03, 2014 Rise Set
Actual Time 7:39 AM CST 5:59 PM CST
Civil Twilight 7:11 AM CST 6:27 PM CST
Nautical Twilight 6:39 AM CST 6:58 PM CST
Astronomical Twilight 6:08 AM CST 7:30 PM CST
Moon 9:45 AM CST (2/3) 10:47 PM CST (2/3)
Length of Visible Light 11h 15m
Length of Day
10h 19m
Waxing Crescent, 20% of the Moon is Illuminated
Feb 3
Waxing Crescent
Feb 6
First Quarter
Feb 14
Full
Feb 22
Last Quarter
Mar 1
New

Hourly Weather History & Observations

Time (CST) Temp. Windchill Dew Point Humidity Pressure Visibility Wind Dir Wind Speed Gust Speed Precip Events Conditions
12:53 AM 12.0 °F -0.4 °F 7.0 °F 80% 30.29 in 10.0 mi South 9.2 mph - N/A   Clear
1:53 AM 12.9 °F 2.6 °F 8.1 °F 81% 30.27 in 10.0 mi South 6.9 mph - N/A   Clear
2:53 AM 12.9 °F 0.7 °F 7.0 °F 77% 30.26 in 10.0 mi South 9.2 mph - N/A   Clear
3:53 AM 15.1 °F 1.8 °F 8.1 °F 74% 30.23 in 10.0 mi South 11.5 mph - N/A   Clear
4:53 AM 14.0 °F 1.2 °F 8.1 °F 77% 30.24 in 10.0 mi South 10.4 mph - N/A   Clear
5:53 AM 12.9 °F 1.6 °F 8.1 °F 81% 30.23 in 10.0 mi South 8.1 mph - N/A   Clear
6:53 AM 14.0 °F 0.5 °F 8.1 °F 77% 30.24 in 10.0 mi South 11.5 mph - N/A   Clear
7:53 AM 15.1 °F 3.3 °F 9.0 °F 77% 30.24 in 10.0 mi South 9.2 mph - N/A   Clear
8:53 AM 19.0 °F 5.0 °F 10.9 °F 71% 30.25 in 10.0 mi South 15.0 mph - N/A   Clear
9:53 AM 24.1 °F 11.0 °F 12.0 °F 60% 30.25 in 10.0 mi SSW 16.1 mph - N/A   Mostly Cloudy
10:06 AM 24.1 °F 12.0 °F 12.0 °F 60% 30.16 in 10.0 mi South 13.8 mph - N/A   Overcast
10:53 AM 28.0 °F 18.1 °F 12.9 °F 53% 30.24 in 10.0 mi South 11.5 mph - N/A   Overcast
11:17 AM 28.0 °F 17.0 °F 12.0 °F 51% 30.15 in 10.0 mi South 13.8 mph - N/A   Overcast
11:53 AM 28.0 °F 16.5 °F 12.0 °F 51% 30.22 in 10.0 mi South 15.0 mph - N/A   Overcast
12:29 PM 28.0 °F 15.3 °F 12.0 °F 51% 30.11 in 10.0 mi South 18.4 mph - N/A   Overcast
12:53 PM 28.9 °F 16.1 °F 12.0 °F 49% 30.17 in 10.0 mi SSE 19.6 mph - N/A   Overcast
1:53 PM 28.9 °F 16.5 °F 10.0 °F 45% 30.14 in 10.0 mi SSE 18.4 mph - N/A   Overcast
2:53 PM 30.0 °F 17.5 °F 8.1 °F 40% 30.12 in 10.0 mi SSE 19.6 mph - N/A   Overcast
3:53 PM 30.0 °F 17.9 °F 10.0 °F 43% 30.10 in 10.0 mi SE 18.4 mph - N/A   Overcast
4:53 PM 30.9 °F 19.8 °F 10.9 °F 43% 30.10 in 10.0 mi SE 16.1 mph - N/A   Overcast
5:53 PM 30.0 °F 19.1 °F 10.9 °F 45% 30.11 in 10.0 mi SE 15.0 mph - N/A   Overcast
6:23 PM 30.0 °F 20.0 °F 12.0 °F 47% 30.02 in 10.0 mi SE 12.7 mph - N/A   Overcast
6:53 PM 30.9 °F 21.2 °F 12.0 °F 46% 30.11 in 10.0 mi SE 12.7 mph - N/A   Overcast
7:23 PM 30.9 °F 22.2 °F 12.9 °F 47% 30.04 in 10.0 mi SE 10.4 mph - N/A   Overcast
7:53 PM 30.0 °F 24.1 °F 12.9 °F 49% 30.12 in 10.0 mi NE 5.8 mph - N/A   Overcast
8:53 PM 30.0 °F 23.2 °F 14.0 °F 51% 30.13 in 10.0 mi ENE 6.9 mph - N/A   Overcast
9:53 PM 28.9 °F 20.4 °F 17.1 °F 61% 30.12 in 10.0 mi ENE 9.2 mph - N/A   Overcast
10:53 PM 28.0 °F 19.3 °F 17.1 °F 63% 30.12 in 10.0 mi NE 9.2 mph - N/A   Overcast
11:53 PM 28.0 °F 20.8 °F 18.0 °F 66% 30.12 in 10.0 mi ENE 6.9 mph - N/A   Overcast